Location: Be Tobo
(6.6442°N, 10.6239°W)
Time: 01:26:54
(UTC+00:00)

Okean-O - Pass Details

Date: 18 September 2020
Orbit: 639 x 641 km, 98.2° (Epoch: 21 October)

Event Time Altitude Azimuth Distance (km) Brightness Sun altitude
Rises 19:32:31 0° 168° (SSE) 2,937 5.9 -13.8°
Reaches altitude 10° 19:34:43 10° 167° (SSE) 2,027 5.0 -14.3°
Maximum altitude 19:39:08 89° 86° (E) 643 2.6 -15.4°
Drops below altitude 10° 19:43:33 10° 349° (NNW) 2,024 5.4 -16.5°
Sets 19:45:45 0° 349° (NNW) 2,931 6.2 -17.0°
